This demonstration page uses our WeatherBlox Daily Observations layout. Learn more.

Left ArrowRight Arrow

Hourly Observations for August 8, 2015

Temp ( °F °C ) Dew Point ( °F °C ) Humidity (%) Winds ( mph kmh ) Pressure ( in mb ) Visibility ( mi km ) Precip ( " mm )
12:53 am 00:53 Cloudy 66 18.9 64 17.8 93 93 N N/A 29.92 1013 10 16 N/A
1:53 am 01:53 Mostly Cloudy 65 18.3 64 17.8 97 97 N N/A 29.91 1013 10 16 N/A
2:53 am 02:53 Clear 64 17.8 63 17.2 96 96 N N/A 29.90 1013 10 16 N/A
3:53 am 03:53 Clear 62 16.7 61 16.1 96 96 N N/A 29.90 1012 10 16 N/A
4:53 am 04:53 Clear 61 16.1 60 15.6 97 97 N N/A 29.91 1013 10 16 N/A
5:53 am 05:53 Clear 61 16.1 60 15.6 97 97 N N/A 29.94 1014 10 16 N/A
6:53 am 06:53 Sunny 60 15.6 59 15 96 96 N N/A 29.96 1014 10 16 N/A
7:53 am 07:53 Sunny 65 18.3 61 16.1 87 87 N N/A 29.96 1014 10 16 N/A
8:53 am 08:53 Sunny 69 20.6 62 16.7 78 78 N N/A 29.97 1015 10 16 N/A
9:53 am 09:53 Sunny 73 22.8 64 17.8 74 74 N N/A 29.96 1015 10 16 N/A
10:53 am 10:53 Sunny 77 25 62 16.7 60 60 N N/A 29.97 1015 10 16 N/A
11:53 am 11:53 Sunny 80 26.7 61 16.1 52 52 VRB 5 7 29.98 1015 10 16 N/A
12:53 pm 12:53 Sunny 82 27.8 62 16.7 51 51 VRB 5 7 29.98 1015 10 16 N/A
1:53 pm 13:53 Partly Cloudy 83 28.3 63 17.2 51 51 VRB 5 7 29.98 1015 10 16 N/A
2:53 pm 14:53 Partly Cloudy 83 28.3 63 17.2 51 51 N N/A 29.98 1015 10 16 N/A
3:53 pm 15:53 Sunny 83 28.3 64 17.8 53 53 N N/A 29.97 1015 10 16 N/A
4:53 pm 16:53 Sunny 82 27.8 64 17.8 55 55 N N/A 29.96 1015 10 16 N/A
5:53 pm 17:53 Mostly Sunny 81 27.2 67 19.4 62 62 W 3 6 29.96 1015 10 16 N/A
6:53 pm 18:53 Sunny 82 27.8 66 18.9 58 58 W 3 6 29.96 1015 10 16 N/A
7:53 pm 19:53 Sunny 78 25.6 67 19.4 69 69 N N/A 29.96 1014 10 16 N/A
8:53 pm 20:53 Clear 72 22.2 68 20 87 87 N N/A 29.96 1015 10 16 N/A
9:53 pm 21:53 Clear 70 21.1 68 20 93 93 N N/A 29.96 1015 10 16 N/A
10:53 pm 22:53 Clear 70 21.1 68 20 93 93 N N/A 29.98 1015 10 16 N/A
11:53 pm 23:53 Clear 68 20 67 19.4 96 96 N N/A 29.98 1015 10 16 N/A

Powered by AerisWeather